• In Uzbekistan
  • List of Countries
  • For 7 days
  • Water Temperature
  • Satellite Maps
  • Weather Map
  • Weather Widgets
  • user-avatar
    Login

    Hourly Weather Luksor

    Today, 27 May, Sunday

    Time Temperature Precipitation Wind Pressure Humidity
    00:00 +37°C° 0 mm 3 mps 747 mmHg 16%
    01:00 +36°C° 0 mm 3 mps 747 mmHg 18%
    02:00 +36°C° 0 mm 2 mps 746 mmHg 19%
    03:00 +35°C° 0 mm 2 mps 746 mmHg 20%
    04:00 +35°C° 0 mm 2 mps 746 mmHg 21%
    05:00 +34°C° 0 mm 2 mps 747 mmHg 22%
    06:00 +35°C° 0 mm 1 mps 747 mmHg 20%
    07:00 +36°C° 0 mm 1 mps 747 mmHg 19%
    08:00 +39°C° 0 mm 1 mps 748 mmHg 16%
    09:00 +40°C° 0 mm 1 mps 748 mmHg 15%
    10:00 +41°C° 0 mm 1 mps 748 mmHg 13%
    11:00 +42°C° 0 mm 2 mps 748 mmHg 12%
    12:00 +43°C° 0 mm 2 mps 747 mmHg 11%
    13:00 +45°C° 0 mm 2 mps 747 mmHg 10%
    14:00 +43°C° 0 mm 2 mps 747 mmHg 11%
    15:00 +44°C° 0.1 mm 3 mps 747 mmHg 11%
    16:00 +44°C° 0.1 mm 3 mps 747 mmHg 11%
    17:00 +44°C° 0.1 mm 4 mps 747 mmHg 12%
    18:00 +43°C° 0 mm 4 mps 747 mmHg 13%
    19:00 +42°C° 0 mm 5 mps 747 mmHg 15%
    20:00 +41°C° 0 mm 6 mps 747 mmHg 17%
    21:00 +40°C° 0 mm 6 mps 748 mmHg 18%
    22:00 +39°C° 0 mm 6 mps 748 mmHg 19%
    23:00 +38°C° 0 mm 6 mps 748 mmHg 21%

    Tomorrow, 28 May, Monday

    Time Temperature Precipitation Wind Pressure Humidity
    00:00 +36°C° 0 mm 6 mps 748 mmHg 21%
    01:00 +35°C° 0 mm 5 mps 748 mmHg 21%
    02:00 +35°C° 0 mm 4 mps 748 mmHg 21%
    03:00 +34°C° 0 mm 3 mps 748 mmHg 22%
    04:00 +34°C° 0 mm 3 mps 748 mmHg 23%
    05:00 +32°C° 0 mm 2 mps 748 mmHg 24%
    06:00 +34°C° 0.1 mm 3 mps 748 mmHg 23%
    07:00 +35°C° 0.1 mm 3 mps 748 mmHg 22%
    08:00 +37°C° 0.1 mm 3 mps 749 mmHg 21%
    09:00 +38°C° 0 mm 3 mps 749 mmHg 20%
    10:00 +39°C° 0 mm 3 mps 749 mmHg 18%
    11:00 +40°C° 0 mm 3 mps 749 mmHg 17%
    12:00 +42°C° 0 mm 3 mps 748 mmHg 16%
    13:00 +43°C° 0 mm 3 mps 748 mmHg 15%
    14:00 +44°C° 0 mm 3 mps 747 mmHg 14%
    15:00 +44°C° 0 mm 4 mps 747 mmHg 13%
    16:00 +45°C° 0 mm 5 mps 747 mmHg 13%
    17:00 +45°C° 0 mm 6 mps 746 mmHg 13%
    18:00 +42°C° 0 mm 6 mps 747 mmHg 14%
    19:00 +41°C° 0 mm 7 mps 747 mmHg 15%
    20:00 +40°C° 0 mm 7 mps 747 mmHg 16%
    21:00 +39°C° 0 mm 7 mps 747 mmHg 17%
    22:00 +38°C° 0 mm 7 mps 748 mmHg 17%
    23:00 +36°C° 0 mm 7 mps 748 mmHg 17%

    Day after tomorrow, 29 May, Tuesday

    Time Temperature Precipitation Wind Pressure Humidity
    00:00 +36°C° 0 mm 6 mps 748 mmHg 19%
    01:00 +35°C° 0 mm 6 mps 747 mmHg 20%
    02:00 +34°C° 0 mm 5 mps 747 mmHg 21%
    03:00 +34°C° 0 mm 4 mps 747 mmHg 23%
    04:00 +33°C° 0 mm 4 mps 747 mmHg 24%
    05:00 +31°C° 0 mm 3 mps 748 mmHg 25%
    06:00 +34°C° 0 mm 4 mps 748 mmHg 24%
    07:00 +35°C° 0 mm 4 mps 748 mmHg 22%
    08:00 +36°C° 0 mm 5 mps 748 mmHg 20%
    09:00 +37°C° 0 mm 5 mps 748 mmHg 18%
    10:00 +39°C° 0 mm 5 mps 748 mmHg 17%
    11:00 +40°C° 0 mm 5 mps 748 mmHg 15%
    12:00 +40°C° 0 mm 5 mps 748 mmHg 14%
    13:00 +41°C° 0 mm 5 mps 747 mmHg 14%
    14:00 +41°C° 0 mm 6 mps 747 mmHg 13%
    15:00 +41°C° 0 mm 6 mps 747 mmHg 13%
    16:00 +41°C° 0 mm 6 mps 746 mmHg 14%
    17:00 +41°C° 0 mm 6 mps 746 mmHg 15%
    18:00 +40°C° 0 mm 6 mps 747 mmHg 16%
    19:00 +39°C° 0 mm 6 mps 747 mmHg 18%
    20:00 +38°C° 0 mm 6 mps 747 mmHg 19%
    21:00 +36°C° 0 mm 6 mps 748 mmHg 21%
    22:00 +35°C° 0 mm 5 mps 748 mmHg 22%
    23:00 +35°C° 0 mm 5 mps 748 mmHg 24%

    30 May, Wednesday

    Time Temperature Precipitation Wind Pressure Humidity
    00:00 +34°C° 0 mm 5 mps 748 mmHg 24%
    01:00 +33°C° 0 mm 4 mps 748 mmHg 25%
    02:00 +33°C° 0 mm 3 mps 748 mmHg 25%
    03:00 +31°C° 0 mm 3 mps 748 mmHg 26%
    04:00 +31°C° 0 mm 2 mps 748 mmHg 27%
    05:00 +30°C° 0 mm 2 mps 748 mmHg 27%
    06:00 +31°C° 0 mm 3 mps 748 mmHg 26%
    07:00 +33°C° 0 mm 3 mps 748 mmHg 24%
    08:00 +35°C° 0 mm 4 mps 749 mmHg 22%
    09:00 +36°C° 0 mm 4 mps 749 mmHg 20%
    10:00 +37°C° 0 mm 4 mps 749 mmHg 19%
    11:00 +38°C° 0 mm 4 mps 749 mmHg 17%
    12:00 +40°C° 0 mm 4 mps 749 mmHg 16%
    13:00 +40°C° 0 mm 4 mps 748 mmHg 15%
    14:00 +41°C° 0 mm 5 mps 748 mmHg 13%
    15:00 +41°C° 0 mm 5 mps 748 mmHg 13%
    16:00 +41°C° 0 mm 5 mps 747 mmHg 14%
    17:00 +41°C° 0 mm 5 mps 747 mmHg 14%
    18:00 +40°C° 0 mm 5 mps 748 mmHg 15%
    19:00 +39°C° 0 mm 5 mps 748 mmHg 16%
    20:00 +37°C° 0 mm 4 mps 748 mmHg 17%
    21:00 +37°C° 0 mm 4 mps 749 mmHg 19%
    22:00 +36°C° 0 mm 4 mps 749 mmHg 20%
    23:00 +35°C° 0 mm 3 mps 749 mmHg 21%

    31 May, Thursday

    Time Temperature Precipitation Wind Pressure Humidity
    00:00 +35°C° 0 mm 3 mps 749 mmHg 22%
    01:00 +34°C° 0 mm 2 mps 749 mmHg 23%
    02:00 +32°C° 0 mm 2 mps 748 mmHg 24%
    03:00 +32°C° 0 mm 2 mps 749 mmHg 25%
    04:00 +31°C° 0 mm 2 mps 749 mmHg 26%
    05:00 +31°C° 0 mm 1 mps 749 mmHg 27%
    06:00 +32°C° 0 mm 2 mps 749 mmHg 25%
    07:00 +34°C° 0 mm 2 mps 749 mmHg 23%
    08:00 +35°C° 0 mm 3 mps 750 mmHg 22%
    09:00 +37°C° 0 mm 3 mps 750 mmHg 20%
    10:00 +38°C° 0 mm 3 mps 750 mmHg 18%
    11:00 +40°C° 0 mm 4 mps 749 mmHg 16%
    12:00 +41°C° 0 mm 4 mps 749 mmHg 15%
    13:00 +41°C° 0 mm 5 mps 748 mmHg 13%
    14:00 +42°C° 0 mm 5 mps 748 mmHg 12%
    15:00 +42°C° 0 mm 6 mps 748 mmHg 12%
    16:00 +42°C° 0 mm 6 mps 748 mmHg 11%
    17:00 +43°C° 0 mm 7 mps 748 mmHg 11%
    18:00 +41°C° 0 mm 6 mps 748 mmHg 12%
    19:00 +40°C° 0 mm 6 mps 748 mmHg 14%
    20:00 +39°C° 0 mm 5 mps 749 mmHg 15%
    21:00 +37°C° 0 mm 4 mps 749 mmHg 16%
    22:00 +36°C° 0 mm 4 mps 749 mmHg 17%
    23:00 +35°C° 0 mm 3 mps 749 mmHg 18%

    1 June, Friday

    Time Temperature Precipitation Wind Pressure Humidity
    00:00 +35°C° 0 mm 3 mps 749 mmHg 19%
    01:00 +34°C° 0 mm 3 mps 749 mmHg 20%
    02:00 +32°C° 0 mm 2 mps 749 mmHg 21%
    03:00 +32°C° 0 mm 2 mps 749 mmHg 22%
    04:00 +31°C° 0 mm 2 mps 749 mmHg 23%
    05:00 +31°C° 0 mm 2 mps 749 mmHg 24%
    06:00 +33°C° 0 mm 3 mps 750 mmHg 23%
    07:00 +34°C° 0 mm 3 mps 750 mmHg 22%
    08:00 +35°C° 0 mm 4 mps 750 mmHg 21%
    09:00 +37°C° 0 mm 5 mps 750 mmHg 18%
    10:00 +39°C° 0 mm 5 mps 750 mmHg 16%
    11:00 +40°C° 0 mm 6 mps 750 mmHg 14%
    12:00 +41°C° 0 mm 6 mps 749 mmHg 12%
    13:00 +43°C° 0 mm 7 mps 749 mmHg 11%
    14:00 +44°C° 0 mm 7 mps 748 mmHg 9%
    15:00 +44°C° 0 mm 7 mps 748 mmHg 10%
    16:00 +43°C° 0 mm 8 mps 748 mmHg 10%
    17:00 +43°C° 0 mm 8 mps 748 mmHg 10%
    18:00 +41°C° 0 mm 7 mps 748 mmHg 11%
    19:00 +40°C° 0 mm 6 mps 748 mmHg 12%
    20:00 +39°C° 0 mm 5 mps 749 mmHg 13%
    21:00 +37°C° 0 mm 4 mps 749 mmHg 14%
    22:00 +36°C° 0 mm 4 mps 749 mmHg 15%
    23:00 +36°C° 0 mm 3 mps 749 mmHg 16%
    Show more